Regional Weather Roundup
Issued by NWS

Home | Current Version | Previous Version | Text Only | Print | Product List | Glossary Off
Versions: 1 2 3 4 5 6 7 8 9 10 11 12 13 14 15 16 17 18 19 20 21 22 23 24 25 26 27 28 29 30 31 32 33 34 35 36 37 38 39 40 41 42 43 44 45 46 47 48 49 50

000
ASUS43 KFSD 220302
RWRSD

WEATHER ROUNDUP FOR SOUTH DAKOTA
NATIONAL WEATHER SERVICE SIOUX FALLS SD
900 PM CST SUN JAN 21 2018

NOTE: "FAIR" INDICATES FEW OR NO CLOUDS BELOW 12,000 FEET WITH NO
SIGNIFICANT WEATHER AND/OR OBSTRUCTIONS TO VISIBILITY.


SDZ001>005-009-010-012>017-220400-
NORTHWEST AND NORTH CENTRAL SOUTH DAKOTA

CITY           SKY/WX    TMP DP  RH WIND       PRES   REMARKS
BUFFALO          N/A     24  18  77 SW6       29.96S WCI  17
FAITH            N/A     27  25  92 NW9       30.01S WCI  18
MOBRIDGE       CLOUDY    24  21  88 N5        30.01R WCI  18
$$

SDZ012>016-024>037-041>051-057-063-072>074-220400-
SOUTHWEST AND SOUTH CENTRAL SOUTH DAKOTA

CITY           SKY/WX    TMP DP  RH WIND       PRES   REMARKS
RAPID CTY ARPT CLOUDY    31  22  69 N16       30.00F WCI  20
PIERRE         CLOUDY    29  26  89 N13       30.01S WCI  19
CUSTER         CLOUDY    23  16  74 N7        29.93F WCI  15
ELLSWORTH AFB  CLOUDY    31  23  72 NW16      30.00S WCI  20
PHILIP         CLOUDY    29  27  92 N8        30.01F WCI  21
PINE RIDGE     CLOUDY    29  25  85 N10       29.97F WCI  20
SPEARFISH        N/A     27  21  80 W8        30.02S WCI  18
WINNER         LGT SNOW  32  29  88 N20       29.95S VSB 1   WCI  20
$$

SDZ004>011-016>023-039-040-220400-
NORTHEAST SOUTH DAKOTA

CITY           SKY/WX    TMP DP  RH WIND       PRES   REMARKS
ABERDEEN       CLOUDY    26  24  92 N9        30.05S WCI  17
WATERTOWN      CLOUDY    27  25  92 N14       29.96F WCI  16
BROOKINGS      CLOUDY    31  26  82 NE13      29.93  WCI  21
SISSETON         N/A     27  24  89 N12       30.05R WCI  17
$$

SDZ017-020-022-023-036>040-048>070-220400-
SOUTHEAST SOUTH DAKOTA

CITY           SKY/WX    TMP DP  RH WIND       PRES   REMARKS
SIOUX FALLS    CLOUDY    35  28  75 N17G28    29.87F WCI  25
HURON          CLOUDY    30  27  88 N17G24    29.97S WCI  18
CHAMBERLAIN    LGT SNOW  32  32 100 NW14G22   29.96F WCI  22
MITCHELL       CLOUDY    33  30  88 N13       29.97R WCI  24
YANKTON        LGT RAIN  36  30  79 N16G25    29.85R
$$

ABBREVIATIONS USED IN REMARKS
   TC - TEMPERATURE IN CELSIUS
  WCI - WIND CHILL INDEX
   HX - HEAT INDEX
  VSB - VISIBILITY





USA.gov is the U.S. government's official web portal to all federal, state and local government web resources and services.